Station 46087 (LLNR 756) - Neah Bay - 6 NM North of Cape Flattery, WA (Traffic Separation Lighted Buoy) Image indicating link to RSS feed of recent meteorological observations for station 46087

Strait of Juan de Fuca Traffic Separation Lighted Buoy JA


Conditions at 46087 as of
(8:40 pm PDT on 05/27/2023)
0340 GMT on 05/28/2023:
     

Click on the graph icon in the table below to see a time series plot of the last five days of that observation.

5-day plot - Wind Direction Wind Direction (WDIR):WSW ( 250 deg true )
5-day plot - Wind Speed Wind Speed (WSPD): 9.7 kts
5-day plot - Wind Gust Wind Gust (GST): 11.7 kts
5-day plot - Atmospheric Pressure Atmospheric Pressure (PRES):30.02 in
5-day plot - Air Temperature Air Temperature (ATMP): 51.4 °F
5-day plot - Water Temperature Water Temperature (WTMP): 51.3 °F
5-day plot - Dew Point Dew Point (DEWP): 49.5 °F
5-day plot - Wind Chill Wind Chill (CHILL): 47.5 °F
5-day plot - Wind Speed at 10 Meters Wind Speed at 10 meters (WSPD10M): 9.7 kts
5-day plot - Wind Speed at 20 Meters Wind Speed at 20 meters (WSPD20M): 9.7 kts
5-day plot -  Wind Speed, Wind Gust and Atmospheric Pressure Combined plot of Wind Speed, Gust, and Air Pressure
Supplemental Measurements
Highest 1-minute Wind Speed
Time (PDT)5-day plot - 1-Minute Wind Speed WSPD 5-day plot - 1-Minute Wind Direction WDIR
8:36 pm 9.7 kts-
Previous observations
TIME
(PDT)
5-day plot - Wind Direction
WDIR
 
5-day plot - Wind Speed
WSPD
kts
5-day plot - Wind Gust
GST
kts
5-day plot - Wave Height
WVHT
ft
5-day plot - Dominant Wave Period
DPD
sec
5-day plot - Average Wave Period
APD
sec
5-day plot - Mean Wave Direction
MWD
 
5-day plot - Atmospheric Pressure
PRES
in
5-day plot - Pressure Tendency
PTDY
in
5-day plot - Air Temperature
ATMP
°F
5-day plot - Water Temperature
WTMP
°F
5-day plot - Dew Point
DEWP
°F
5-day plot - Salinity
SAL
psu
5-day plot - Visibility
VIS
nmi
5-day plot - Tide (above MLLW)
TIDE
ft
2023-05-27 08:30 pmWSW 9.7 11.7----30.02- 51.6 51.1 49.6---
2023-05-27 08:20 pmWSW 9.7 13.6 6.6 96.3 W30.02- 51.6 51.1 49.6---
2023-05-27 08:10 pmWSW 11.7 13.6----30.01- 51.6 51.1 49.5---
2023-05-27 08:00 pmWSW 11.7 15.5----30.02+0.00 51.6 51.1 49.5---
2023-05-27 07:50 pmWSW 11.7 13.6 7.5 96.6 W30.02- 51.6 51.3 49.5---
2023-05-27 07:40 pmWSW 9.7 15.5----30.01- 51.4 51.3 49.6---
2023-05-27 07:30 pm SW 9.7 13.6----30.01- 51.6 51.3 50.0---
2023-05-27 07:20 pmSSW 7.8 11.7 7.5 96.6 W30.01- 51.6 51.3 49.8---
2023-05-27 07:10 pmSSW 7.8 11.7----30.01- 51.6 51.3 49.8---
2023-05-27 07:00 pmSSW 7.8 11.7----30.01-0.01 51.4 51.3 49.5---
2023-05-27 06:50 pmSSW 7.8 9.7 6.9 86.5 W30.01- 51.6 51.3 49.6---
2023-05-27 06:40 pmSSW 7.8 9.7----30.01- 51.4 51.3 49.5---
2023-05-27 06:30 pmSSW 7.8 9.7----30.01- 51.6 51.1 49.6---
2023-05-27 06:20 pm SW 7.8 9.7 7.2 86.7 W30.01- 51.6 51.1 49.6---
2023-05-27 06:10 pm SW 5.8 11.7----30.01- 51.6 51.3 49.6---
2023-05-27 06:00 pmWSW 7.8 11.7----30.02+0.00 51.6 51.1 49.8---
2023-05-27 05:50 pmWSW 9.7 11.7 7.5 96.9 W30.02- 51.6 51.1 49.8---
2023-05-27 05:40 pmWSW 7.8 11.7----30.02- 51.6 51.1 49.6---
2023-05-27 05:30 pm SW 7.8 9.7----30.02- 51.6 51.1 49.5---
2023-05-27 05:20 pm SW 5.8 7.8 7.5 86.8 W30.01- 51.4 51.1 49.3---
2023-05-27 05:10 pm SW 5.8 9.7 7.5-6.8 W30.01- 51.4 51.3 49.1---
2023-05-27 05:00 pm SW 5.8 9.7----30.01+0.00 51.6 51.3 49.1---
2023-05-27 04:50 pm SW 5.8 9.7 8.2 97.4 W30.02- 51.8 51.3 48.6---
2023-05-27 04:40 pm SW 7.8 11.7----30.02- 51.8 51.1 48.2---
2023-05-27 04:30 pm SW 7.8 9.7----30.02- 51.6 51.1 48.0---
2023-05-27 04:20 pm SW 7.8 9.7 8.2 87.1 W30.02- 51.6 50.9 48.4---
2023-05-27 04:10 pm SW 7.8 11.7 8.2-7.1 W30.02- 51.6 50.7 48.6---
2023-05-27 04:00 pm SW 7.8 9.7----30.01+0.00 51.4 50.7 48.6---
2023-05-27 03:50 pm SW 7.8 11.7 7.9 97.0 W30.01- 51.4 51.1 48.7---
2023-05-27 03:40 pm SW 7.8 11.7----30.01- 51.6 51.4 48.9---
2023-05-27 03:30 pm SW 5.8 9.7----30.02- 51.8 51.3 48.7---
2023-05-27 03:20 pm SW 7.8 9.7 7.2 96.9 W30.01- 51.4 51.1 48.0---
2023-05-27 03:10 pm SW 5.8 9.7----30.01- 51.4 51.1 48.6---
2023-05-27 03:00 pm SW 7.8 9.7----30.02+0.01 51.4 51.1 48.7---
2023-05-27 02:50 pm SW 7.8 9.7 8.2 97.3 W30.02- 51.4 51.3 48.9---
2023-05-27 02:40 pm SW 7.8 9.7----30.02- 51.4 51.3 49.1---
2023-05-27 02:30 pm SW 5.8 9.7----30.02- 51.3 51.3 48.9---
2023-05-27 02:20 pm SW 5.8 9.7 8.2 97.4 W30.02- 51.3 50.9 48.7---
2023-05-27 02:10 pmSSW 5.8 9.7 8.2-7.4 W30.02- 51.3 50.7 48.7---
2023-05-27 02:00 pm SW 7.8 11.7----30.02+0.02 51.3 50.5 48.6---
2023-05-27 01:50 pm SW 7.8 9.7 7.9 97.2WNW30.02- 51.1 50.5 48.7---
2023-05-27 01:40 pm SW 7.8 9.7----30.02- 51.3 50.7 49.1---
2023-05-27 01:30 pm SW 7.8 9.7----30.02- 51.1 50.5 48.9---
2023-05-27 01:20 pm SW 7.8 11.7 7.9 97.2WNW30.01- 51.1 50.5 48.9---
2023-05-27 01:10 pm SW 7.8 9.7 7.9-7.2WNW30.01- 51.1 50.5 48.9---
2023-05-27 01:00 pm SW 7.8 11.7----30.02+0.04 51.1 50.4 48.9---
2023-05-27 12:50 pm SW 7.8 11.7 7.9 97.2 W30.01- 51.1- 49.1---
2023-05-27 12:40 pm SW 7.8 11.7----30.01- 51.1 50.4 49.1---
2023-05-27 12:30 pm SW 7.8 9.7----30.01- 51.1 50.4 49.3---
2023-05-27 12:20 pm SW 7.8 11.7 7.2 96.9WNW30.01- 51.1 50.4 49.3---
2023-05-27 12:10 pmSSW 7.8 9.7----30.00- 51.1 50.4 49.1---
2023-05-27 12:00 pmSSW 7.8 11.7----30.01+0.03 51.1 50.4 49.1---
2023-05-27 11:50 amSSW 7.8 9.7 7.2 86.8 W30.00- 50.9 50.9 48.9---
2023-05-27 11:40 amSSW 7.8 9.7----30.00- 50.9 50.9 49.1---
2023-05-27 11:30 amSSW 7.8 9.7----30.00- 50.9 50.5 49.1---
2023-05-27 11:20 amSSW 7.8 9.7 7.9 107.1WNW30.00- 50.9 50.5 49.3---
2023-05-27 11:10 amSSW 7.8 9.7----30.00- 50.9 50.7 49.3---
2023-05-27 11:00 amSSW 7.8 9.7----29.99+0.03 50.9 50.9 49.3---
2023-05-27 10:50 amSSW 7.8 11.7 7.5 97.1WNW29.99- 50.9 50.9 49.3---
2023-05-27 10:40 amSSW 7.8 9.7----29.99- 50.7 50.7 49.1---
2023-05-27 10:30 amSSW 5.8 9.7----29.98- 50.7 50.5 49.3---
2023-05-27 10:20 am S 5.8 7.8 7.9 107.1 W29.98- 50.7 50.9 49.3---
2023-05-27 10:10 am S 5.8 7.8 7.9-7.1 W29.98- 50.7 50.7 49.3---
2023-05-27 10:00 am S 5.8 7.8----29.98+0.02 50.7 50.5 49.3---
2023-05-27 09:50 am S 5.8 7.8 8.5 107.3 W29.98- 50.7 50.4 49.3---
2023-05-27 09:40 am S 5.8 7.8----29.98- 50.5 50.2 49.1---
2023-05-27 09:30 am S 5.8 7.8----29.97- 50.5 50.0 49.3---
2023-05-27 09:20 am S 5.8 7.8 8.5 107.4 W29.97- 50.5 50.0 49.3---
2023-05-27 09:10 am S 5.8 7.8 8.5-7.4 W29.97- 50.5 49.8 49.1---
2023-05-27 09:00 am S 5.8 7.8----29.97+0.02 50.7 49.8 49.3---
2023-05-27 08:50 am S 5.8 5.8 7.5 97.2WNW29.97- 50.7 50.0 49.3---
2023-05-27 08:40 amSSW 3.9 5.8 7.5-7.2WNW29.97- 50.7 50.0 49.3---
2023-05-27 08:30 amSSW 3.9 7.8----29.97- 50.7 50.2 49.3---
2023-05-27 08:20 amSSW 5.8 7.8 7.2 97.0 W29.97- 50.7 50.2 49.3---
2023-05-27 08:10 amSSW 5.8 7.8 7.2-7.0 W29.97- 50.7 50.5 49.3---
2023-05-27 08:00 amSSW 5.8 7.8----29.97+0.03 50.5 50.4 49.1---
2023-05-27 07:50 amSSW 5.8 7.8 8.2 107.2 W29.97- 50.5 50.2 49.1---
2023-05-27 07:40 amSSW 5.8 9.7----29.97- 50.5 50.2 48.9---
2023-05-27 07:30 amSSW 5.8 7.8----29.97- 50.5 50.2 48.9---
2023-05-27 07:20 amSSW 5.8 7.8 7.9 97.0 W29.96- 50.7 50.2 48.9---
2023-05-27 07:10 amSSW 5.8 7.8 7.9-7.0 W29.96- 50.7 50.2 48.9---
2023-05-27 07:00 amSSW 5.8 9.7----29.96+0.02 50.7 50.2 48.9---
2023-05-27 06:50 amSSW 7.8 9.7 6.9 106.7 W29.96- 50.7 50.4 48.7---
2023-05-27 06:40 amSSW 7.8 9.7----29.96- 50.7 50.5 48.7---
2023-05-27 06:30 amSSW 7.8 9.7----29.96- 50.9 51.3 48.9---
2023-05-27 06:20 amSSW 5.8 9.7 6.9 106.8WNW29.96- 50.9 50.9 48.9---
2023-05-27 06:10 amSSW 5.8 7.8----29.95- 50.9 50.7 48.9---
2023-05-27 06:00 amSSW 7.8 9.7----29.95+0.02 50.9 50.9 48.9---
2023-05-27 05:50 amSSW 7.8 9.7 6.6 86.8 W29.95- 50.9 51.3 48.9---
2023-05-27 05:40 amSSW 7.8 9.7----29.94- 50.7 51.4 48.9---
2023-05-27 05:30 amSSW 7.8 9.7----29.94- 50.7 51.4 48.9---
2023-05-27 05:20 amSSW 7.8 9.7 6.6 86.7WNW29.94- 50.7 51.4 49.1---
2023-05-27 05:10 amSSW 7.8 9.7 6.6-6.7WNW29.94- 50.7 51.4 49.1---
2023-05-27 05:00 amSSW 5.8 9.7----29.94+0.00 50.7 51.1 49.1---
2023-05-27 04:50 amSSW 5.8 7.8 6.2 86.6WNW29.94- 50.9 50.9 49.5---
2023-05-27 04:40 amSSW 7.8 9.7----29.94- 50.9 50.5 49.5---
2023-05-27 04:30 amSSW 5.8 7.8----29.94- 51.1 51.1 49.6---
2023-05-27 04:20 amSSW 7.8 9.7 5.9 86.7WNW29.94- 51.1 51.3 49.8---
2023-05-27 04:10 amSSW 7.8 9.7----29.94- 51.1 51.3 50.0---
2023-05-27 04:00 amSSW 5.8 7.8----29.94+0.00 51.3 51.3 50.0---
2023-05-27 03:50 amSSW 5.8 7.8 6.2 86.7WNW29.94- 51.3 51.1 50.0---
2023-05-27 03:40 amSSW 7.8 9.7----29.94- 51.3 51.1 50.0---
2023-05-27 03:30 amSSW 5.8 7.8----29.94- 51.3 50.9 50.2---
2023-05-27 03:20 am SW 5.8 7.8 5.9 86.7 W29.94- 51.3 50.9 50.2---
2023-05-27 03:10 am SW 5.8 7.8----29.93- 51.3 50.7 50.2---
2023-05-27 03:00 am SW 3.9 7.8----29.94+0.00 51.3 50.7 50.2---
2023-05-27 02:50 am SW 3.9 5.8 6.2 86.4 W29.94- 51.3 50.7 50.2---
2023-05-27 02:40 amWSW 3.9 5.8----29.94- 51.3 50.7 50.2---
2023-05-27 02:30 am W 5.8 7.8----29.93- 51.3 50.5 50.2---
2023-05-27 02:20 amWSW 3.9 5.8 6.2 86.5WNW29.93- 51.3 50.5 50.2---
2023-05-27 02:10 am SW 3.9 5.8 6.2-6.5WNW29.93- 51.3 50.5 50.2---
2023-05-27 02:00 am SW 3.9 5.8----29.94+0.00 51.4 50.5 50.4---
2023-05-27 01:50 am SW 3.9 7.8 5.9 86.2 W29.94- 51.4 50.5 50.4---
2023-05-27 01:40 am SW 5.8 7.8----29.94- 51.4 50.7 50.2---
2023-05-27 01:30 am SW 5.8 7.8----29.94- 51.4 50.7 50.2---
2023-05-27 01:20 am SW 5.8 7.8 5.9 86.4 W29.94- 51.6 50.7 50.4---
2023-05-27 01:10 amWSW 5.8 7.8 5.9-6.4 W29.94- 51.6 50.9 50.2---
2023-05-27 01:00 amWSW 5.8 9.7----29.94+0.01 51.8 51.1 50.5---
2023-05-27 12:50 am SW 5.8 9.7 5.9 85.9WNW29.94- 51.8 51.3 50.5---
2023-05-27 12:40 am SW 5.8 9.7----29.94- 51.8 51.8 50.4---
2023-05-27 12:30 amWSW 7.8 9.7----29.94- 52.0 51.8 50.5---
2023-05-27 12:20 amWSW 7.8 11.7 5.2 75.8 W29.94- 52.0 51.6 50.5---
2023-05-27 12:10 amWSW 7.8 11.7----29.94- 52.0 51.8 50.5---
2023-05-27 12:00 amWSW 7.8 9.7----29.94+0.02 52.0 51.6 50.5---
2023-05-26 11:50 pmWSW 7.8 9.7 5.2 85.8WNW29.94- 52.0 51.4 50.7---
2023-05-26 11:40 pm SW 7.8 9.7----29.94- 52.0 51.6 50.7---
2023-05-26 11:30 pm SW 7.8 9.7----29.93- 52.0 51.6 50.7---
2023-05-26 11:20 pm SW 7.8 11.7 5.9 75.6 W29.93- 52.0 51.6 50.9---
2023-05-26 11:10 pm SW 7.8 9.7----29.93- 52.2 51.4 51.1---
2023-05-26 11:00 pm SW 7.8 11.7----29.93+0.02 52.2 51.4 51.1---
2023-05-26 10:50 pmWSW 7.8 9.7 5.2 75.6WNW29.93- 52.2 51.4 51.1---
2023-05-26 10:40 pmWSW 9.7 11.7----29.93- 52.2 51.4 51.1---
2023-05-26 10:30 pmWSW 7.8 9.7----29.93- 52.3 51.6 51.3---
2023-05-26 10:20 pmWSW 7.8 11.7 4.9 85.2 W29.93- 52.3 51.6 51.3---
2023-05-26 10:10 pmWSW 9.7 11.7----29.93- 52.5 51.4 51.4---
2023-05-26 10:00 pm W 9.7 11.7----29.93+0.02 52.3 51.6 51.3---
2023-05-26 09:50 pm W 7.8 11.7 4.9 75.3WNW29.93- 52.3 51.3 51.3---
2023-05-26 09:40 pm W 9.7 11.7----29.93- 52.5 51.3 51.3---
2023-05-26 09:30 pm W 9.7 13.6----29.92- 52.5 51.3 51.3---
2023-05-26 09:20 pm W 11.7 15.5 4.9 65.1 W29.92- 52.3 51.1 51.3---
2023-05-26 09:10 pm W 11.7 15.5 4.9-5.1 W29.92- 52.3 51.3 51.3---
2023-05-26 09:00 pm W 13.6 17.5----29.92+0.01 52.3 51.3 51.4---
2023-05-26 08:50 pm W 13.6 17.5 4.6 74.9 W29.91- 52.3 51.3 51.3---

Detailed Wave Summary
for 46087 as of
(8:10 pm PDT on 05/27/2023)
0310 GMT on 05/28/2023:

These wave data are displayed in rounded times.

     

Click on the graph icon in the table below to see a time series plot of the last five days of that observation.

5-day plot - Significant Wave Height Significant Wave Height (WVHT): 6.6 ft
5-day plot - Swell Height Swell Height (SwH): 5.9 ft
5-day plot - Swell Period Swell Period (SwP): 9.1 sec
5-day plot - Swell Direction Swell Direction (SwD): W
5-day plot - Wind Wave Height Wind Wave Height (WWH): 2.6 ft
5-day plot - Wind Wave Period Wind Wave Period (WWP): 4.5 sec
5-day plot - Wind Wave Direction Wind Wave Direction (WWD):WSW
5-day plot - Wave Steepness Wave Steepness (STEEPNESS): AVERAGE
5-day plot - Average Wave Period Average Wave Period (APD): 6.3 sec
Previous observations
TIME
(PDT)
5-day plot - Wave Height
WVHT
ft
5-day plot - Swell Height
SwH
ft
5-day plot - Swell Period
SwP
sec
5-day plot - Swell Direction
SwD
 
5-day plot - Wind Wave Height
WWH
ft
5-day plot - Wind Wave Period
WWP
sec
5-day plot - Wind Wave Direction
WWD
 
5-day plot - Wave Steepness
STEEPNESS
 
5-day plot - Average Wave Period
APD
sec
2023-05-27 07:40 pm 7.5 7.2 9.1 W 2.3 4.5 W AVERAGE 6.6
2023-05-27 07:10 pm 7.5 7.2 9.1 W 1.6 3.6 W AVERAGE 6.6
2023-05-27 06:40 pm 6.9 6.6 8.3 W 1.6 3.7 W AVERAGE 6.5
2023-05-27 06:10 pm 7.2 7.2 8.3 W 1.6 3.8 W STEEP 6.7
2023-05-27 05:40 pm 7.5 7.2 9.1 W 1.6 4.0 WSW AVERAGE 6.9
2023-05-27 05:10 pm 7.5 7.2 8.3 W 1.3 4.0 W STEEP 6.8
2023-05-27 04:40 pm 8.2 8.2 9.1 W 1.3 3.7 W AVERAGE 7.4
2023-05-27 04:10 pm 8.2 7.9 8.3 W 1.3 3.8 W STEEP 7.1
2023-05-27 03:40 pm 7.9 7.9 9.1 W 1.6 3.7 W AVERAGE 7.0
2023-05-27 03:10 pm 7.2 6.9 9.1 W 1.3 3.7 W AVERAGE 6.9
2023-05-27 02:40 pm 8.2 8.2 9.1 W 1.3 3.8 W AVERAGE 7.3
2023-05-27 02:10 pm 8.2 7.9 9.1 W 1.3 3.8 W AVERAGE 7.4
2023-05-27 01:40 pm 7.9 7.5 9.1WNW 1.3 4.0 WSW AVERAGE 7.2
2023-05-27 01:10 pm 7.9 7.5 9.1WNW 1.3 3.7 W AVERAGE 7.2
2023-05-27 12:40 pm 7.9 7.5 9.1 W 1.3 3.8 W AVERAGE 7.2
2023-05-27 12:10 pm 7.2 6.9 9.1WNW 1.3 3.7 W AVERAGE 6.9
2023-05-27 11:40 am 7.2 6.9 8.3 W 1.3 3.2 W STEEP 6.8
2023-05-27 11:10 am 7.9 7.5 10.0WNW 1.3 3.7 W AVERAGE 7.1
2023-05-27 10:40 am 7.5 7.2 9.1WNW 1.3 3.7 W AVERAGE 7.1
2023-05-27 10:10 am 7.9 7.9 10.0 W 1.3 4.0 W AVERAGE 7.1
2023-05-27 09:40 am 8.5 8.2 10.0 W 1.3 3.8 W AVERAGE 7.3
2023-05-27 09:10 am 8.5 8.5 10.0 W 1.3 3.8 W AVERAGE 7.4
2023-05-27 08:40 am 7.5 7.2 9.1WNW 1.3 3.7 W AVERAGE 7.2
2023-05-27 08:10 am 7.2 7.2 9.1 W 1.3 3.1 WNW AVERAGE 7.0
2023-05-27 07:40 am 8.2 8.2 10.0 W 1.3 3.8 W AVERAGE 7.2
2023-05-27 07:10 am 7.9 7.5 9.1 W 1.3 3.8 WSW AVERAGE 7.0
2023-05-27 06:40 am 6.9 6.6 10.0 W 1.3 4.0 W AVERAGE 6.7
2023-05-27 06:10 am 6.9 6.9 10.0WNW 1.3 3.8 WSW AVERAGE 6.8
2023-05-27 05:40 am 6.6 6.2 7.7 W 1.3 3.4 W STEEP 6.8
2023-05-27 05:10 am 6.6 6.2 8.3WNW 1.3 4.0 W AVERAGE 6.7
2023-05-27 04:40 am 6.2 5.9 8.3WNW 1.3 3.8 W AVERAGE 6.6
2023-05-27 04:10 am 5.9 5.9 7.7WNW 1.3 4.0 W STEEP 6.7
2023-05-27 03:40 am 6.2 6.2 8.3WNW 1.0 3.7 WSW AVERAGE 6.7
2023-05-27 03:10 am 5.9 5.9 8.3 W 1.0 3.7 WSW AVERAGE 6.7
2023-05-27 02:40 am 6.2 6.2 7.7 W 1.3 4.0 W STEEP 6.4
2023-05-27 02:10 am 6.2 6.2 7.7WNW 1.3 3.6 W STEEP 6.5
2023-05-27 01:40 am 5.9 5.6 7.7 W 1.3 3.4 W STEEP 6.2
2023-05-27 01:10 am 5.9 5.9 7.7 W 1.3 3.7 W STEEP 6.4
2023-05-27 12:40 am 5.9 5.6 8.3WNW 1.6 4.0 W AVERAGE 5.9
2023-05-27 12:10 am 5.2 4.9 7.1 W 1.6 4.0 WSW STEEP 5.8
2023-05-26 11:40 pm 5.2 5.2 8.3WNW 1.6 3.6 W AVERAGE 5.8
2023-05-26 11:10 pm 5.9 5.6 7.1 W 1.6 4.0 W STEEP 5.6
2023-05-26 10:40 pm 5.2 4.9 7.1WNW 2.0 4.2 W STEEP 5.6
2023-05-26 10:10 pm 4.9 4.6 7.7 W 2.3 4.3 W AVERAGE 5.2
2023-05-26 09:40 pm 4.9 4.6 7.1WNW 2.0 4.2 W STEEP 5.3
2023-05-26 09:10 pm 4.9 3.6 6.2 W 3.6 5.3 W STEEP 5.1

Plot of wave energy versus frequency (and period)